Back to catalog

STARLINK-3889

AliveCommunicationsVLEO
NORAD 52331·PAYLOAD·🇺🇸 United States

Launched Apr 29, 2022 from Cape Canaveral Space Force Station

Loading…

Next Passes (next 24 hours)

TLE

FreshSource: CelesTrak SupGP

Epoch: Sep 14, 2026, 21:55 UTC

1 52331C 22045A   26257.91368056  .00723800  00000+0  24299-1 0  2570
2 52331  53.1611  77.8288 0001371  84.4811 277.5598 15.29957096    18

Track STARLINK-3889 in real time with AllMySat

Download on the App Store